Grafton, ND

1:54 AM CDT on August 23, 2017 (GMT -0500)
Grafton Municipal

Weather History for KGAF - January, 2014

Change the Weather History Date:

Sunday, January 5, 2014

  Actual Average Record
Temperature  
Mean Temperature -16 °F -  
Max Temperature -11 °F 11 °F 50 °F (2012)
Min Temperature -20 °F -2 °F -33 °F (1960)
Degree Days  
Heating Degree Days 80    
Moisture  
Dew Point -27 °F    
Average Humidity 66    
Maximum Humidity 70    
Minimum Humidity 58    
Precipitation  
Precipitation 0.00 in - - ()
Sea Level Pressure  
Sea Level Pressure 30.42 in    
Wind  
Wind Speed 11 mph (NW)    
Max Wind Speed 20 mph    
Max Gust Speed 24 mph    
Visibility 9 miles    
Events Snow    
Averages and records for this station are not official NWS values.
T = Trace of Precipitation, MM = Missing Value Source: NWS Daily Summary

Daily Weather History Graph

Daily Weather History Graph

Search for Another Location

Airport or City:

Trip Planner

Search our weather history database for the weather conditions in past years. The results will help you decide how hot, cold, wet, or windy it might be!

Date:

Astronomy

Jan. 05, 2014 Rise Set
Actual Time 8:20 AM CST 4:49 PM CST
Civil Twilight 7:44 AM CST 5:26 PM CST
Nautical Twilight 7:04 AM CST 6:05 PM CST
Astronomical Twilight 6:26 AM CST 6:43 PM CST
Moon 10:37 AM CST (1/5) 10:47 PM CST (1/5)
Length of Visible Light 9h 41m
Length of Day
8h 29m
Waxing Crescent, 25% of the Moon is Illuminated
Jan 5
Waxing Crescent
Jan 7
First Quarter
Jan 15
Full
Jan 23
Last Quarter
Jan 30
New

Hourly Weather History & Observations

Time (CST) Temp. Windchill Dew Point Humidity Pressure Visibility Wind Dir Wind Speed Gust Speed Precip Events Conditions
12:15 AM -11.2 °F -27.8 °F -20.2 °F 64% 30.29 in 10.0 mi WNW 8.1 mph - N/A   Clear
12:35 AM -13.0 °F -31.3 °F -22.0 °F 64% 30.29 in 10.0 mi NW 9.2 mph - N/A   Clear
12:55 AM -13.0 °F -30.0 °F -22.0 °F 64% 30.30 in 10.0 mi WNW 8.1 mph - N/A   Clear
1:15 AM -13.0 °F -31.3 °F -22.0 °F 64% 30.30 in 10.0 mi WNW 9.2 mph - N/A   Clear
1:35 AM -13.0 °F -33.4 °F -22.0 °F 64% 30.31 in 10.0 mi WNW 11.5 mph - N/A   Clear
1:55 AM -13.0 °F -31.3 °F -22.0 °F 64% 30.31 in 10.0 mi WNW 9.2 mph - N/A   Clear
2:15 AM -14.8 °F -34.6 °F -22.0 °F 70% 30.31 in 10.0 mi WNW 10.4 mph - N/A   Clear
2:35 AM -14.8 °F -35.6 °F -22.0 °F 70% 30.32 in 10.0 mi NW 11.5 mph - N/A   Clear
2:55 AM -14.8 °F -34.6 °F -23.8 °F 64% 30.32 in 10.0 mi WNW 10.4 mph - N/A   Clear
3:15 AM -14.8 °F -32.2 °F -23.8 °F 64% 30.33 in 10.0 mi WNW 8.1 mph - N/A   Clear
3:35 AM -16.6 °F -32.9 °F -23.8 °F 70% 30.33 in 10.0 mi WNW 6.9 mph - N/A   Clear
3:55 AM -16.6 °F -37.9 °F -23.8 °F 70% 30.33 in 10.0 mi WNW 11.5 mph - N/A   Clear
4:15 AM -16.6 °F -38.9 °F -25.6 °F 64% 30.33 in 10.0 mi NW 12.7 mph - N/A   Clear
4:35 AM -16.6 °F -36.8 °F -25.6 °F 64% 30.34 in 10.0 mi NW 10.4 mph - N/A   Clear
4:55 AM -18.4 °F -37.9 °F -25.6 °F 70% 30.34 in 10.0 mi NW 9.2 mph - N/A   Clear
5:15 AM -18.4 °F -37.9 °F -25.6 °F 70% 30.35 in 10.0 mi WNW 9.2 mph - N/A   Clear
5:35 AM -18.4 °F -39.1 °F -25.6 °F 70% 30.35 in 10.0 mi NW 10.4 mph - N/A   Clear
5:55 AM -18.4 °F -37.9 °F -25.6 °F 70% 30.36 in 10.0 mi NW 9.2 mph - N/A   Clear
6:15 AM -18.4 °F -37.9 °F -25.6 °F 70% 30.37 in 10.0 mi NW 9.2 mph - N/A   Clear
6:35 AM -18.4 °F -37.9 °F -25.6 °F 70% 30.38 in 10.0 mi NW 9.2 mph - N/A   Clear
6:55 AM -18.4 °F -37.9 °F -25.6 °F 70% 30.39 in 10.0 mi NW 9.2 mph - N/A   Clear
7:15 AM -20.2 °F -40.1 °F -27.4 °F 69% 30.40 in 10.0 mi NW 9.2 mph - N/A   Clear
7:35 AM -20.2 °F -37.3 °F -27.4 °F 69% 30.40 in 10.0 mi NW 6.9 mph - N/A   Clear
7:55 AM -20.2 °F -38.8 °F -27.4 °F 69% 30.41 in 10.0 mi NW 8.1 mph - N/A   Clear
8:15 AM -20.2 °F -37.3 °F -27.4 °F 69% 30.41 in 10.0 mi NW 6.9 mph - N/A   Clear
8:35 AM -20.2 °F -41.3 °F -27.4 °F 69% 30.43 in 8.0 mi NW 10.4 mph - N/A   Clear
8:55 AM -20.2 °F -40.1 °F -27.4 °F 69% 30.43 in 10.0 mi NW 9.2 mph - N/A   Clear
9:15 AM -20.2 °F -42.4 °F -27.4 °F 69% 30.44 in 10.0 mi NW 11.5 mph - N/A   Partly Cloudy
9:35 AM -20.2 °F -43.4 °F -27.4 °F 69% 30.44 in 10.0 mi NW 12.7 mph - N/A   Clear
9:55 AM -18.4 °F -41.2 °F -27.4 °F 63% 30.45 in 10.0 mi NW 12.7 mph - N/A   Clear
10:15 AM -18.4 °F -40.2 °F -27.4 °F 63% 30.46 in 10.0 mi WNW 11.5 mph - N/A   Clear
10:35 AM -18.4 °F -42.1 °F -27.4 °F 63% 30.47 in 8.0 mi NW 13.8 mph - N/A   Partly Cloudy
10:55 AM -18.4 °F -42.1 °F -27.4 °F 63% 30.47 in 2.5 mi NW 13.8 mph 18.4 mph N/A   Haze
11:15 AM -18.4 °F -43.7 °F -27.4 °F 63% 30.48 in 7.0 mi NW 16.1 mph - N/A   Partly Cloudy
11:35 AM -18.4 °F -41.2 °F -27.4 °F 63% 30.47 in 4.0 mi NW 12.7 mph - N/A   Haze
11:55 AM -18.4 °F -42.9 °F -27.4 °F 63% 30.47 in 10.0 mi NW 15.0 mph - N/A   Scattered Clouds
12:15 PM -18.4 °F -42.9 °F -27.4 °F 63% 30.47 in 10.0 mi NW 15.0 mph - N/A   Partly Cloudy
12:35 PM -18.4 °F -42.1 °F -27.4 °F 63% 30.47 in 7.0 mi NW 13.8 mph - N/A   Partly Cloudy
12:55 PM -18.4 °F -43.7 °F -27.4 °F 63% 30.46 in 10.0 mi NW 16.1 mph - N/A   Partly Cloudy
1:15 PM -18.4 °F -45.2 °F -27.4 °F 63% 30.45 in 10.0 mi WNW 18.4 mph - N/A   Scattered Clouds
1:35 PM -18.4 °F -44.5 °F -27.4 °F 63% 30.45 in 10.0 mi WNW 17.3 mph 23.0 mph N/A   Scattered Clouds
1:55 PM -18.4 °F -43.7 °F -27.4 °F 63% 30.45 in 9.0 mi NW 16.1 mph - N/A   Mostly Cloudy
2:15 PM -18.4 °F -43.7 °F -29.2 °F 58% 30.45 in 10.0 mi WNW 16.1 mph - N/A   Scattered Clouds
2:35 PM -18.4 °F -45.2 °F -27.4 °F 63% 30.46 in 9.0 mi NW 18.4 mph - N/A   Mostly Cloudy
2:55 PM -18.4 °F -42.1 °F -27.4 °F 63% 30.46 in 10.0 mi NW 13.8 mph 23.0 mph N/A   Mostly Cloudy
3:15 PM -18.4 °F -45.2 °F -27.4 °F 63% 30.46 in 8.0 mi NW 18.4 mph 21.9 mph N/A   Overcast
3:35 PM -18.4 °F -44.5 °F -27.4 °F 63% 30.46 in 5.0 mi NW 17.3 mph - N/A   Haze
3:55 PM -18.4 °F -45.2 °F -27.4 °F 63% 30.47 in 10.0 mi NW 18.4 mph - N/A   Mostly Cloudy
4:15 PM -18.4 °F -43.7 °F -27.4 °F 63% 30.47 in 8.0 mi NW 16.1 mph 21.9 mph N/A   Partly Cloudy
4:35 PM -18.4 °F -40.2 °F -27.4 °F 63% 30.48 in 10.0 mi NW 11.5 mph - N/A   Clear
4:55 PM -18.4 °F -45.9 °F -27.4 °F 63% 30.48 in 5.0 mi NW 19.6 mph - N/A Snow Light Snow
5:15 PM -20.2 °F -45.2 °F -27.4 °F 69% 30.48 in 4.0 mi NW 15.0 mph 21.9 mph N/A Snow Light Snow
5:35 PM -20.2 °F -45.2 °F -27.4 °F 69% 30.48 in 6.0 mi NW 15.0 mph - N/A   Haze
5:55 PM -20.2 °F -46.8 °F -27.4 °F 69% 30.47 in 10.0 mi NW 17.3 mph 21.9 mph N/A   Clear
6:15 PM -20.2 °F -43.4 °F -27.4 °F 69% 30.48 in 10.0 mi WNW 12.7 mph - N/A   Clear
6:35 PM -20.2 °F -43.4 °F -27.4 °F 69% 30.47 in 9.0 mi NW 12.7 mph - N/A   Clear
6:55 PM -20.2 °F -44.4 °F -27.4 °F 69% 30.47 in 9.0 mi NW 13.8 mph - N/A   Clear
7:15 PM -20.2 °F -44.4 °F -27.4 °F 69% 30.47 in 10.0 mi NW 13.8 mph 21.9 mph N/A   Clear
7:35 PM -20.2 °F -45.2 °F -27.4 °F 69% 30.47 in 10.0 mi NW 15.0 mph - N/A   Clear
7:55 PM -20.2 °F -45.2 °F -27.4 °F 69% 30.46 in 10.0 mi NW 15.0 mph - N/A   Clear
8:15 PM -20.2 °F -43.4 °F -27.4 °F 69% 30.45 in 10.0 mi NW 12.7 mph - N/A   Scattered Clouds
8:35 PM -20.2 °F -43.4 °F -27.4 °F 69% 30.45 in 8.0 mi WNW 12.7 mph - N/A Snow Light Snow
8:55 PM -20.2 °F -43.4 °F -27.4 °F 69% 30.44 in 10.0 mi WNW 12.7 mph - N/A   Mostly Cloudy
9:15 PM -20.2 °F -45.2 °F -29.2 °F 63% 30.44 in 10.0 mi WNW 15.0 mph - N/A   Partly Cloudy
9:35 PM -20.2 °F -46.0 °F -29.2 °F 63% 30.43 in 10.0 mi WNW 16.1 mph - N/A   Clear
9:55 PM -20.2 °F -44.4 °F -29.2 °F 63% 30.43 in 10.0 mi WNW 13.8 mph - N/A   Clear
10:15 PM -20.2 °F -46.0 °F -29.2 °F 63% 30.42 in 10.0 mi WNW 16.1 mph - N/A   Clear
10:35 PM -20.2 °F -46.0 °F -29.2 °F 63% 30.42 in 10.0 mi WNW 16.1 mph - N/A   Clear
10:55 PM -20.2 °F -46.8 °F -29.2 °F 63% 30.42 in 10.0 mi WNW 17.3 mph 24.2 mph N/A   Clear
11:15 PM -20.2 °F -46.8 °F -29.2 °F 63% 30.41 in 10.0 mi WNW 17.3 mph - N/A   Clear
11:35 PM -20.2 °F -46.0 °F -29.2 °F 63% 30.41 in 10.0 mi NW 16.1 mph - N/A   Clear
11:55 PM -20.2 °F -46.8 °F -29.2 °F 63% 30.40 in 10.0 mi NW 17.3 mph 21.9 mph N/A   Clear